This is the latest recevied weather packets stored in our database for station/object K3JSE-4. If no packets are shown the sender has not sent any weather packets the latest 10 day(s).
| Time | Temp. | Humidity | Pressure | Rain* | Wind** | Luminosity | Snow |
|---|---|---|---|---|---|---|---|
| 1777649143 | 12.78° C | 53% | 1014.8 hPa | 0 mm | - | - | - |
| 1777648843 | 13.33° C | 54% | 1014.9 hPa | 0 mm | - | - | - |
| 1777648543 | 12.78° C | 48% | 1014.9 hPa | 0 mm | - | - | - |
| 1777648243 | 12.78° C | 46% | 1015 hPa | 0 mm | - | - | - |
| 1777647943 | 12.78° C | 46% | 1015 hPa | 0 mm | - | - | - |
| 1777647643 | 12.78° C | 47% | 1014.9 hPa | 0 mm | - | - | - |
| 1777647343 | 12.78° C | 50% | 1015 hPa | 0 mm | - | - | - |
| 1777647043 | 12.22° C | 48% | 1015 hPa | 0 mm | - | - | - |
| 1777646743 | 12.22° C | 51% | 1014.8 hPa | 0 mm | - | - | - |
| 1777646443 | 12.22° C | 52% | 1014.8 hPa | 0 mm | - | - | - |
| 1777646143 | 11.67° C | 52% | 1014.8 hPa | 0 mm | - | - | - |
| 1777645843 | 11.67° C | 59% | 1014.9 hPa | 0 mm | - | - | - |
| 1777645543 | 11.67° C | 54% | 1015 hPa | 0 mm | - | - | - |
| 1777645243 | 11.11° C | 56% | 1015 hPa | 0 mm | - | - | - |
| 1777644943 | 11.11° C | 53% | 1015 hPa | 0 mm | - | - | - |
| 1777644643 | 11.11° C | 57% | 1015 hPa | 0 mm | - | - | - |
| 1777644343 | 11.11° C | 58% | 1015 hPa | 0 mm | - | - | - |
| 1777644043 | 11.11° C | 60% | 1015.1 hPa | 0 mm | - | - | - |
| 1777643743 | 10.56° C | 60% | 1015 hPa | 0 mm | - | - | - |
| 1777643443 | 10.56° C | 60% | 1015.1 hPa | 0 mm | - | - | - |
| 1777643143 | 10° C | 61% | 1015.1 hPa | 0 mm | - | - | - |
| 1777642843 | 10.56° C | 62% | 1015.3 hPa | 0 mm | - | - | - |
| 1777642543 | 10° C | 61% | 1015.2 hPa | 0 mm | - | - | - |
| 1777642243 | 10° C | 61% | 1015.3 hPa | 0 mm | - | - | - |
| 1777641943 | 10° C | 61% | 1015.2 hPa | 0 mm | - | - | - |
* Rain latest hour (hover to see other rain measurements)
** Current wind speed in m/s (hover to see current wind gust speed)